Temp
88 86 85 82 82 81 80 79 80 81 81 84 85 86 87 87 88 88 87 88 87 87 87 86 85 86 91 91 88 89 88 89 91 91 88 89 90 90 91 91 91 91
88 88 85 85 82 81 80 82 82 81 80 80 83 87 87 87 88 88 89 88 86 87 86 87 87 86 88 90 89 89 88 88 88 94 89 89 89 91 91 91 92 92
91 91 88 85 85 82 80 82 82 81 82 83 85 86 88 88 88 88 88 89 88 88 87 86 86 86 88 89 88 89 89 87 88 92 89 88 89 89 90 92 92 92
91 91 93 91 86 84 82 82 83 83 84 84 86 88 88 90 89 90 89 88 89 88 88 88 87 89 89 90 88 88 89 87 89 88 87 88 89 91 91 91 92 93
91 92 93 89 87 86 84 83 84 84 84 84 87 87 87 87 87 89 89 88 87 89 89 88 88 89 88 87 88 87 88 89 88 87 86 85 87 89 92 91 90 91
90 88 87 86 87 85 84 85 85 86 85 86 86 88 88 88 89 88 90 89 90 89 90 90 90 89 89 88 87 88 88 89 90 86 86 85 88 90 92 91 89 89
86 86 86 86 86 86 83 86 87 88 87 87 88 88 88 87 87 88 89 90 91 89 89 88 86 88 90 88 86 86 86 86 87 86 86 87 86 87 90 90 87 87
84 84 85 84 85 86 84 86 88 88 88 88 87 86 88 88 88 89 88 88 91 90 89 90 88 86 89 89 87 86 87 90 88 85 84 85 84 84 85 87 86 85
83 83 84 84 84 84 84 84 84 82 82 87 87 87 88 88 89 90 89 89 89 89 87 89 88 88 88 88 86 85 86 88 89 88 85 85 84 84 84 85 86 84
82 83 83 83 82 81 80 81 82 83 79 77 80 87 88 87 87 85 80 81 86 88 88 87 87 87 88 87 86 86 85 86 87 87 87 85 83 84 85 84 84 84
82 82 82 81 82 81 81 81 80 80 78 78 80 82 86 85 82 81 79 84 87 88 88 87 87 88 86 87 87 87 86 87 86 85 86 82 81 80 82 83 83 83
81 82 82 82 80 80 80 80 80 80 80 80 80 81 83 81 80 78 80 83 86 88 89 87 86 87 87 87 88 88 87 86 85 84 80 78 80 79 80 82 82 82
81 81 81 81 80 80 80 80 80 80 80 80 81 81 81 82 81 80 82 84 85 86 87 86 86 86 84 84 86 86 85 84 83 81 79 79 79 79 79 80 81 82
81 81 81 81 81 81 81 80 80 80 80 79 78 77 80 81 81 79 82 82 81 82 83 82 80 80 81 82 84 85 84 83 81 81 79 79 79 79 79 78 79 80
80 80 81 80 80 80 80 80 80 80 80 79 78 79 79 79 77 77 77 77 78 78 76 77 78 78 79 81 83 83 84 81 80 80 80 78 80 80 79 78 79 80
79 79 79 80 78 78 79 80 80 79 78 78 78 79 77 77 76 76 75 75 75 76 76 77 77 77 79 82 83 83 83 81 81 80 80 79 79 78 77 76 77 80
78 78 78 77 78 78 78 78 77 77 75 73 75 78 77 77 76 75 75 75 75 75 75 75 76 78 79 75 76 80 82 81 80 79 80 80 79 78 76 76 76 78
78 78 77 77 77 77 78 78 77 74 72 71 73 76 78 77 76 76 76 75 76 75 75 75 76 78 74 72 74 75 80 81 80 79 79 79 79 78 77 76 75 75
78 77 76 75 76 77 77 76 74 73 73 74 75 78 78 75 74 76 76 76 76 75 75 75 76 77 71 71 72 71 75 81 80 80 78 78 79 79 77 75 74 74
76 75 74 76 76 76 76 76 75 74 74 75 76 77 76 75 74 75 76 76 76 75 76 77 77 77 69 69 69 70 72 77 81 79 78 78 78 78 77 75 74 74
74 72 71 73 75 76 76 76 76 75 74 74 75 75 75 74 74 75 75 77 76 76 76 77 78 73 67 67 68 68 70 77 81 80 78 77 77 77 78 76 75 75
71 71 70 70 71 73 73 74 76 76 76 75 74 74 75 75 75 75 76 76 77 77 76 76 78 70 66 66 66 66 69 78 79 78 78 77 76 76 76 76 76 75
71 70 70 68 69 69 70 72 75 75 75 75 74 74 74 74 74 74 75 75 75 77 76 76 78 70 64 64 64 64 70 76 76 77 76 75 76 76 75 75 75 76
72 71 70 70 70 69 70 71 73 75 76 76 73 73 72 74 74 73 73 74 75 75 76 75 76 72 61 62 62 63 71 76 76 74 74 74 74 74 73 73 75 76
74 72 71 71 71 71 72 72 73 75 76 76 75 74 74 74 75 74 73 74 75 75 75 75 76 74 62 60 60 61 70 76 73 71 72 71 70 70 71 71 72 74
73 73 72 71 71 72 74 72 71 73 73 75 75 75 75 74 74 74 73 73 73 74 74 74 74 76 70 59 59 60 65 74 73 71 71 70 70 70 70 70 71 71
MSLP
1007.57 1007.65 1007.81 1007.93 1008.01 1007.89 1008.09 1008.77 1009.09 1009.09 1008.73 1008.29 1008.09 1007.93 1008.01 1007.85 1007.65 1007.73 1007.93 1007.89 1007.81 1007.85 1007.93 1008.13 1008.25 1008.41 1008.29 1008.21 1008.33 1008.49 1008.61 1008.61 1008.57 1008.57 1008.85 1009.09 1009.33 1009.41 1009.57 1009.45 1009.33 1009.29
1006.97 1006.85 1006.93 1007.13 1007.41 1007.53 1007.73 1007.85 1008.05 1008.05 1007.89 1007.85 1007.69 1007.41 1007.17 1007.09 1007.01 1007.13 1007.21 1007.29 1007.33 1007.45 1007.45 1007.73 1008.01 1008.17 1008.29 1008.21 1008.17 1008.41 1008.57 1008.53 1008.69 1008.29 1008.81 1009.05 1009.01 1009.01 1009.17 1009.05 1008.93 1008.81
1006.33 1006.21 1006.41 1006.77 1006.93 1007.21 1007.29 1007.21 1007.21 1007.29 1007.45 1007.41 1007.33 1007.13 1006.89 1006.61 1006.69 1006.61 1006.65 1006.65 1006.93 1007.05 1007.25 1007.41 1007.61 1007.81 1008.01 1007.93 1007.89 1008.09 1008.29 1008.45 1008.53 1008.25 1008.41 1008.77 1008.73 1008.93 1008.85 1008.69 1008.65 1008.65
1006.05 1005.77 1005.53 1005.69 1006.13 1006.41 1006.53 1006.73 1006.73 1006.77 1006.81 1006.97 1006.89 1006.69 1006.61 1006.33 1006.33 1006.41 1006.33 1006.33 1006.53 1006.73 1006.85 1007.09 1007.29 1007.41 1007.57 1007.57 1007.61 1007.89 1007.93 1008.05 1008.05 1008.13 1008.37 1008.37 1008.37 1008.41 1008.49 1008.45 1008.37 1008.29
1005.93 1005.49 1005.13 1005.01 1005.13 1005.29 1005.53 1005.89 1006.09 1006.17 1006.25 1006.17 1006.09 1006.13 1006.25 1006.17 1006.25 1006.29 1006.17 1006.17 1006.25 1006.37 1006.45 1006.69 1006.81 1007.01 1007.13 1007.25 1007.29 1007.61 1007.65 1007.81 1007.73 1007.93 1008.25 1008.45 1008.25 1008.25 1008.17 1008.21 1008.41 1008.49
1005.77 1005.53 1005.33 1005.25 1005.25 1005.29 1005.49 1005.49 1005.45 1005.45 1005.53 1005.61 1005.61 1005.57 1005.65 1005.73 1005.85 1005.97 1005.77 1005.85 1005.85 1006.01 1006.09 1006.17 1006.41 1006.49 1006.65 1006.85 1007.01 1007.13 1007.29 1007.53 1007.45 1007.65 1008.01 1008.25 1008.17 1007.93 1007.93 1007.97 1008.13 1008.37
1006.09 1005.69 1005.53 1005.33 1005.13 1004.97 1005.21 1005.09 1004.93 1004.77 1004.69 1004.65 1004.73 1005.01 1005.09 1005.45 1005.53 1005.45 1005.29 1005.25 1005.29 1005.45 1005.65 1005.81 1006.01 1006.13 1006.05 1006.33 1006.65 1006.89 1006.97 1007.13 1007.17 1007.37 1007.69 1007.85 1007.93 1007.97 1007.77 1007.85 1008.01 1008.17
1005.93 1005.61 1005.45 1005.37 1005.25 1005.09 1005.13 1004.93 1004.53 1004.29 1003.97 1004.09 1004.37 1004.33 1004.53 1004.81 1004.97 1004.93 1005.01 1005.05 1004.93 1004.93 1005.05 1005.21 1005.41 1005.65 1005.65 1005.93 1006.33 1006.61 1006.81 1006.73 1006.97 1007.17 1007.49 1007.57 1007.69 1008.01 1007.89 1007.81 1007.93 1008.17
1005.65 1005.53 1005.33 1005.29 1005.25 1005.01 1004.89 1004.65 1004.65 1004.49 1004.49 1004.17 1003.85 1003.97 1004.01 1004.17 1004.33 1004.37 1004.53 1004.53 1004.53 1004.49 1004.73 1004.77 1004.93 1005.13 1005.21 1005.45 1005.81 1006.21 1006.53 1006.57 1006.45 1006.77 1007.17 1007.45 1007.69 1007.77 1007.77 1007.69 1007.93 1008.05
1005.61 1005.37 1005.25 1005.17 1005.17 1005.05 1005.13 1004.89 1004.73 1004.57 1004.81 1005.25 1004.93 1003.85 1003.65 1003.85 1004.09 1004.49 1004.89 1005.09 1004.53 1004.29 1004.37 1004.37 1004.49 1004.61 1004.73 1004.97 1005.29 1005.61 1006.01 1006.21 1006.25 1006.45 1006.73 1007.01 1007.29 1007.41 1007.49 1007.61 1007.73 1007.85
1005.41 1005.13 1005.09 1004.97 1004.97 1004.81 1004.77 1004.57 1004.37 1004.17 1004.01 1003.81 1003.89 1004.01 1003.33 1003.41 1003.81 1004.09 1005.01 1004.61 1004.05 1003.89 1003.89 1003.93 1004.01 1004.05 1004.29 1004.53 1004.73 1004.97 1005.33 1005.65 1005.93 1006.29 1006.53 1006.81 1006.93 1007.25 1007.45 1007.53 1007.65 1007.77
1005.29 1005.01 1004.85 1004.65 1004.61 1004.57 1004.37 1004.13 1003.97 1003.85 1003.85 1003.65 1003.61 1003.57 1003.29 1003.37 1003.73 1004.25 1004.29 1004.21 1003.77 1003.53 1003.37 1003.37 1003.37 1003.45 1003.69 1004.01 1004.25 1004.45 1004.77 1005.17 1005.65 1006.05 1006.49 1006.73 1006.85 1007.09 1007.41 1007.61 1007.73 1007.65
1005.17 1004.89 1004.57 1004.37 1004.25 1004.13 1003.97 1003.81 1003.69 1003.61 1003.57 1003.57 1003.29 1003.25 1003.29 1003.37 1003.45 1003.65 1003.57 1003.57 1003.33 1003.09 1002.97 1002.97 1003.01 1003.09 1003.53 1003.73 1003.85 1004.05 1004.41 1004.97 1005.45 1005.81 1006.33 1006.61 1006.77 1006.89 1007.13 1007.41 1007.45 1007.45
1004.85 1004.53 1004.33 1004.05 1003.77 1003.57 1003.49 1003.37 1003.25 1003.21 1003.21 1003.37 1003.57 1003.73 1003.33 1003.13 1003.33 1003.61 1003.41 1003.41 1003.53 1003.57 1003.33 1003.29 1003.45 1003.85 1003.97 1004.09 1003.93 1003.85 1004.25 1004.77 1005.17 1005.65 1006.13 1006.49 1006.73 1006.81 1006.89 1007.09 1007.33 1007.49
1004.57 1004.25 1004.09 1003.93 1003.69 1003.45 1003.33 1003.09 1002.97 1002.97 1003.01 1003.01 1003.05 1002.97 1002.97 1003.05 1003.33 1003.61 1003.69 1003.97 1004.13 1004.21 1004.17 1004.05 1004.57 1004.93 1004.81 1004.45 1003.97 1004.05 1004.13 1004.69 1005.01 1005.33 1005.77 1006.29 1006.57 1006.77 1006.85 1006.97 1007.21 1007.33
1004.37 1004.17 1004.01 1003.77 1003.69 1003.45 1003.13 1002.89 1002.81 1003.01 1003.09 1003.13 1003.09 1002.77 1002.73 1002.77 1002.97 1003.09 1003.17 1003.33 1003.57 1003.53 1003.53 1003.85 1004.41 1005.13 1005.05 1004.25 1003.73 1003.97 1004.17 1004.53 1004.81 1005.09 1005.45 1005.89 1006.29 1006.61 1006.97 1007.09 1007.01 1006.85
1004.25 1004.13 1003.93 1003.85 1003.53 1003.17 1002.93 1002.73 1002.65 1002.73 1003.29 1003.81 1003.41 1003.05 1002.73 1002.57 1002.57 1002.77 1002.89 1003.01 1003.01 1002.93 1003.01 1003.17 1003.41 1003.85 1004.05 1003.89 1003.57 1003.57 1003.93 1004.29 1004.65 1005.01 1005.17 1005.53 1005.89 1006.29 1006.73 1007.01 1007.05 1007.05
1004.17 1004.01 1003.97 1003.81 1003.49 1003.17 1002.85 1002.65 1002.61 1002.61 1002.57 1002.89 1003.09 1002.69 1002.29 1002.37 1002.45 1002.41 1002.37 1002.45 1002.61 1003.01 1003.25 1003.09 1002.97 1002.57 1002.41 1002.77 1003.05 1003.29 1003.45 1003.81 1004.21 1004.69 1005.01 1005.29 1005.53 1005.89 1006.17 1006.45 1006.65 1006.85
1003.89 1003.97 1003.97 1003.85 1003.57 1003.17 1002.77 1002.69 1002.69 1002.81 1002.65 1002.25 1001.89 1001.49 1001.49 1001.97 1002.57 1002.33 1002.17 1002.01 1002.17 1002.41 1002.45 1002.29 1002.41 1002.45 1002.49 1002.49 1002.77 1002.97 1003.09 1003.33 1003.73 1004.13 1004.65 1004.93 1005.17 1005.41 1005.81 1006.13 1006.21 1006.37
1003.89 1003.89 1003.65 1003.29 1003.05 1002.89 1002.69 1002.49 1002.41 1002.37 1002.21 1002.05 1001.57 1001.17 1001.17 1001.41 1001.97 1002.33 1002.09 1001.81 1001.73 1001.89 1001.81 1001.57 1001.73 1001.81 1001.97 1002.13 1002.49 1002.77 1002.89 1003.01 1003.33 1003.73 1004.17 1004.45 1004.73 1004.93 1005.25 1005.65 1005.81 1005.97
1003.61 1003.73 1003.89 1003.53 1002.89 1002.57 1002.45 1002.29 1002.05 1001.89 1001.77 1001.65 1001.65 1001.37 1000.97 1001.05 1001.37 1001.77 1001.81 1001.65 1001.49 1001.49 1001.49 1001.25 1001.21 1001.25 1001.53 1001.65 1001.97 1002.33 1002.57 1002.77 1002.97 1003.33 1003.81 1004.13 1004.25 1004.41 1004.69 1005.05 1005.33 1005.45
1003.45 1003.53 1003.37 1003.21 1003.25 1002.93 1002.73 1002.33 1001.85 1001.57 1001.29 1001.01 1001.01 1001.01 1000.97 1000.81 1000.65 1000.73 1001.17 1001.53 1001.37 1001.25 1001.25 1001.09 1000.89 1001.09 1001.29 1001.57 1001.81 1002.05 1002.29 1002.53 1002.73 1003.25 1003.49 1003.81 1004.05 1004.25 1004.45 1004.53 1004.81 1005.17
1003.49 1003.49 1003.17 1002.93 1002.89 1003.25 1003.21 1002.41 1001.69 1001.29 1001.09 1000.85 1000.85 1000.61 1000.65 1000.65 1000.41 1000.25 1000.49 1001.17 1001.37 1001.21 1001.25 1001.09 1000.89 1000.81 1001.05 1001.33 1001.69 1001.89 1002.29 1002.45 1002.81 1003.13 1003.29 1003.65 1003.81 1003.85 1004.05 1004.33 1004.73 1005.01
1003.13 1003.13 1003.17 1003.09 1002.97 1002.61 1002.53 1002.25 1001.61 1000.93 1000.69 1000.49 1000.61 1000.49 1000.37 1000.13 1000.09 1000.13 1000.17 1000.37 1000.77 1001.13 1001.13 1001.25 1001.05 1000.85 1001.05 1001.17 1001.49 1001.81 1001.85 1002.13 1002.61 1002.93 1003.25 1003.45 1003.65 1003.93 1004.21 1004.37 1004.33 1004.53
1002.65 1002.61 1002.61 1002.49 1002.33 1001.89 1001.53 1001.41 1001.13 1000.57 1000.21 1000.05 1000.13 1000.01 1000.01 999.77 999.81 1000.01 1000.09 1000.05 1000.13 1000.45 1000.89 1001.13 1001.05 1000.93 1001.01 1001.25 1001.49 1001.65 1001.69 1001.77 1002.49 1002.81 1003.13 1003.65 1003.93 1004.01 1003.93 1003.97 1004.25 1004.65
1002.29 1002.21 1002.09 1002.05 1001.77 1001.21 1000.65 1000.53 1000.81 1000.53 1000.25 999.97 999.73 999.65 999.65 999.49 999.49 999.65 999.89 999.89 999.77 1000.01 1000.29 1000.69 1001.09 1000.85 1000.81 1001.09 1001.29 1001.49 1001.41 1001.53 1002.01 1002.37 1003.01 1003.57 1003.77 1003.85 1004.01 1004.17 1004.45 1004.93
Wind_Speed
12 11 11 11 11 11 11 9 8 10 10 10 10 10 11 10 9 10 12 11 10 9 7 9 9 8 9 10 8 7 7 8 8 6 5 7 9 11 11 11 10 7
13 13 11 11 10 11 10 9 11 12 12 12 11 10 9 10 10 10 12 10 9 9 9 10 9 9 10 10 9 9 8 8 8 8 6 9 8 10 11 11 10 7
12 12 13 14 11 11 10 13 12 13 12 12 13 12 10 9 12 11 11 11 9 10 10 11 11 11 12 11 8 8 9 7 9 9 7 6 7 7 9 11 9 11
12 14 14 14 13 11 12 12 12 12 12 12 14 14 13 13 11 14 11 11 11 10 11 12 13 12 12 12 10 9 10 7 7 7 7 6 7 8 9 7 8 8
14 13 11 8 9 13 11 14 16 14 14 14 14 14 13 12 12 13 14 12 11 13 11 11 12 13 12 11 10 9 10 9 8 8 7 6 6 7 8 8 7 8
12 11 10 10 5 7 6 13 14 15 15 15 15 13 14 15 15 16 15 15 15 15 15 13 13 13 13 11 10 10 9 10 9 8 8 8 8 7 8 7 6 7
13 12 11 9 11 7 9 13 14 15 15 14 13 14 13 12 12 16 15 15 16 14 15 13 11 12 12 11 10 10 10 9 8 8 9 9 8 8 8 8 6 6
11 11 10 9 11 10 9 13 15 15 15 13 13 13 14 16 15 16 16 16 16 15 14 14 12 11 11 10 10 10 11 11 10 8 7 8 7 7 7 6 5 4
11 10 10 11 12 10 10 10 10 10 10 13 13 11 13 13 16 16 15 14 14 13 13 14 13 12 11 10 10 11 12 12 12 11 9 8 8 8 8 6 6 4
10 11 12 11 10 7 7 11 9 11 7 9 13 11 13 13 15 14 11 13 14 13 13 12 13 13 12 12 10 11 12 13 11 10 9 9 9 9 8 7 7 6
11 10 10 9 9 6 8 9 9 11 7 11 11 13 12 9 5 4 9 13 13 14 14 13 13 14 14 13 12 10 11 11 10 8 6 4 7 3 2 4 5 5
11 10 10 8 5 7 9 9 10 10 10 10 11 12 8 8 10 9 10 15 14 14 14 14 13 13 14 13 13 13 12 11 9 7 6 7 6 6 5 2 4 5
11 11 10 8 7 8 8 9 9 9 9 9 10 12 11 8 8 11 11 13 14 12 12 12 13 11 11 11 11 11 9 10 8 8 8 5 5 5 7 6 6 5
10 10 10 10 9 8 8 9 9 9 9 8 7 11 11 8 6 7 9 9 11 10 9 6 5 6 8 10 10 9 8 7 8 10 7 7 8 8 8 8 6 4
10 9 9 9 10 10 10 9 10 9 7 7 9 10 8 4 2 4 8 8 10 6 7 7 7 6 5 7 8 7 7 6 9 9 9 8 9 8 6 4 5 7
9 9 9 8 7 11 11 10 9 9 8 8 10 8 6 8 10 9 9 10 9 8 7 6 4 4 11 13 9 7 6 6 7 8 9 9 9 8 7 8 8 8
10 9 8 9 10 10 10 9 7 5 6 12 12 11 8 8 8 8 8 8 9 10 9 8 8 9 19 17 14 13 8 8 9 8 9 9 9 10 9 9 9 7
10 10 10 10 10 11 10 8 7 7 9 9 12 13 9 7 9 9 8 9 9 7 9 9 9 17 23 17 17 16 13 9 9 9 9 9 9 9 8 7 8 6
10 10 11 12 12 12 11 8 6 8 9 9 11 10 9 9 10 10 10 10 11 12 12 11 11 16 18 18 18 18 17 12 9 9 9 9 9 9 9 8 7 8
8 9 12 13 12 11 11 11 11 11 9 9 7 7 9 7 8 11 11 11 11 11 12 12 12 13 16 18 18 18 17 13 9 9 8 10 10 10 9 11 10 9
7 8 10 13 12 12 12 12 12 10 9 9 8 8 7 9 10 10 11 12 11 10 10 11 10 15 15 18 19 20 20 16 10 10 9 10 10 9 9 11 11 11
7 8 10 12 14 16 15 15 13 12 10 8 9 8 7 7 9 10 10 11 11 10 11 12 10 15 16 17 18 19 19 12 10 9 10 9 9 9 9 9 11 11
6 8 11 11 11 13 16 17 13 11 10 9 9 7 8 9 9 9 8 9 12 11 11 10 9 12 18 18 18 19 14 10 8 9 9 10 9 9 9 9 7 9
7 8 10 10 10 14 14 15 14 11 9 7 8 8 8 10 8 6 7 9 10 10 11 10 10 9 14 16 18 19 16 12 9 9 8 8 6 4 5 6 9 16
9 8 8 11 13 12 11 13 14 12 9 7 8 7 9 7 6 6 6 7 8 9 11 13 10 10 13 15 15 17 15 9 7 8 9 5 5 6 6 7 5 7
8 11 12 11 13 13 11 9 10 12 11 9 8 7 8 8 8 8 8 7 7 8 8 10 10 8 10 15 16 17 18 10 8 10 9 6 7 9 9 7 6 4
Wind_Direction
227 219 217 213 215 218 216 209 204 217 223 230 232 225 226 225 218 209 211 216 206 211 208 228 244 259 259 238 228 229 239 247 232 219 192 215 221 230 235 235 237 241
231 233 220 215 210 217 222 212 208 213 220 226 235 239 225 223 217 219 225 206 199 208 212 217 224 241 251 244 230 222 225 233 242 232 213 220 224 226 233 239 240 232
261 242 217 215 209 200 202 214 217 219 223 222 226 234 234 221 223 220 225 219 207 211 213 214 222 229 240 240 229 230 226 222 228 230 227 213 223 219 229 233 231 231
256 255 254 230 219 209 197 207 213 221 218 217 220 228 231 231 224 222 221 221 215 212 210 210 217 223 231 236 221 221 227 220 218 225 234 224 226 227 229 235 244 239
271 272 270 267 220 214 192 198 208 211 216 217 219 222 228 229 221 226 221 214 215 217 211 211 211 218 221 228 221 218 221 222 216 212 225 236 234 230 232 232 231 242
279 281 287 297 279 223 199 209 209 215 216 216 217 221 227 225 226 228 222 215 216 216 219 217 214 212 215 218 218 218 214 219 218 207 214 224 231 227 233 234 240 239
277 277 280 282 289 250 211 215 220 220 220 218 218 220 218 223 226 230 227 222 219 214 215 215 213 213 212 210 210 209 209 218 217 206 206 211 218 228 231 232 235 236
281 280 283 284 279 272 248 238 228 227 223 220 219 217 216 219 226 229 230 228 223 217 213 213 208 215 205 204 206 203 209 214 215 207 212 211 204 217 222 233 241 235
285 284 284 284 280 273 266 258 256 268 284 251 222 214 219 221 225 226 228 228 227 221 214 212 210 209 210 209 200 203 210 213 215 205 206 200 200 207 213 222 232 234
288 291 288 284 288 298 294 279 261 255 226 276 282 248 223 221 230 236 237 239 232 223 220 214 209 208 207 209 204 196 203 209 208 209 209 203 203 207 211 212 221 214
280 283 286 283 281 266 262 252 255 257 236 239 239 251 242 229 249 287 260 249 233 222 218 219 216 210 206 204 206 193 198 203 203 198 205 141 174 146 234 237 226 219
285 286 284 283 267 274 270 264 255 243 245 246 244 254 251 213 213 221 230 243 244 232 224 221 220 212 203 203 204 200 196 197 194 187 134 155 173 182 189 225 253 225
289 286 283 272 254 259 256 257 257 249 243 242 242 247 250 235 204 211 226 240 236 236 230 223 222 211 208 204 204 200 188 177 168 137 150 151 160 156 173 201 226 232
287 289 285 279 269 257 254 253 248 251 245 250 271 260 255 243 234 239 242 248 269 265 266 278 283 255 226 215 214 195 181 170 146 165 149 157 172 191 194 201 202 226
286 290 290 284 281 281 269 260 263 259 255 244 238 243 237 242 241 251 274 295 295 334 0 340 319 284 289 239 211 192 175 145 164 163 162 162 179 170 170 166 219 224
283 284 283 284 277 276 278 279 280 277 281 285 264 242 228 229 237 236 229 228 229 231 223 222 217 244 248 232 186 187 168 155 158 166 166 175 178 169 156 163 211 231
284 282 278 271 271 268 268 271 264 269 263 248 248 246 227 232 221 220 223 232 236 231 222 205 195 196 228 207 198 181 171 165 171 170 173 171 172 173 178 168 188 223
289 286 273 272 272 272 272 266 267 243 219 231 248 241 234 227 230 225 223 226 232 233 234 228 215 210 216 199 188 185 178 172 170 170 176 181 173 170 176 175 181 195
290 298 292 285 279 280 279 275 256 260 256 235 225 228 230 222 234 233 219 216 213 210 218 218 217 218 216 198 190 188 183 169 174 170 171 176 173 170 165 170 185 195
302 295 288 282 277 280 274 269 253 242 247 251 242 232 218 215 221 235 232 221 217 214 219 220 206 214 201 194 192 191 187 180 173 167 171 178 174 171 168 171 188 197
280 291 296 294 288 280 277 268 259 243 225 230 246 246 222 195 215 225 229 231 224 217 224 225 213 205 202 194 189 186 187 186 180 172 173 185 185 177 169 174 191 199
285 294 290 290 293 294 283 275 271 265 256 237 227 230 237 225 214 212 220 231 230 218 222 229 223 201 197 197 188 185 181 188 183 183 176 179 179 179 176 182 187 192
291 283 287 288 288 288 283 278 272 267 258 237 227 218 227 221 220 214 204 222 237 230 223 229 230 201 193 192 191 184 178 190 187 193 179 178 181 177 180 184 184 195
266 264 269 267 265 267 267 274 271 266 262 246 227 222 226 228 222 219 208 216 225 233 228 226 232 214 197 195 190 183 182 184 182 180 182 178 177 145 142 175 198 213
285 277 268 273 272 261 262 272 278 272 260 245 239 224 233 233 216 216 211 218 219 218 228 232 230 225 200 200 194 187 189 186 169 192 191 170 127 143 161 166 164 198
279 288 291 283 274 275 264 254 261 269 256 255 249 238 235 228 215 202 205 206 216 226 218 221 229 232 203 197 195 192 194 186 185 187 175 141 142 146 151 150 148 158